| time (UTC) | temp C | wind direction | speed KPH | gust KPH | rain 1hr cm | rain 24hr cm | rain mn cm | humidity % | barometer mb |
| 20260505140449 | 13 | 304 | 4.8 | 6.4 | 0.00 | 0.00 | 0.00 | 86 | 1010.9 |
| 20260505140215 | 13 | 314 | 3.2 | 6.4 | 0.00 | 0.00 | 0.00 | 87 | 1010.9 |
| 20260505124949 | 12 | 35 | 1.6 | 4.8 | 0.00 | 0.00 | 0.00 | 88 | 1010.8 |
| 20260505124538 | 12 | 53 | 0.0 | 0.0 | 0.00 | 0.00 | 0.00 | 87 | 1010.8 |
| 20260505123450 | 13 | 53 | 0.0 | 0.0 | 0.00 | 0.00 | 0.00 | 86 | 1010.9 |
| 20260505122946 | 13 | 53 | 0.0 | 1.6 | 0.00 | 0.00 | 0.00 | 86 | 1010.9 |
| 20260505122447 | 13 | 53 | 0.0 | 1.6 | 0.00 | 0.00 | 0.00 | 86 | 1010.9 |
| 20260505121948 | 13 | 53 | 0.0 | 3.2 | 0.00 | 0.00 | 0.00 | 86 | 1010.9 |
| 20260505121445 | 13 | 53 | 1.6 | 3.2 | 0.00 | 0.00 | 0.00 | 87 | 1011.0 |
| 20260505120945 | 13 | 53 | 1.6 | 3.2 | 0.00 | 0.00 | 0.00 | 89 | 1011.0 |
| 20260505120915 | 12 | 53 | 1.6 | 1.6 | 0.00 | 0.00 | 0.00 | 89 | 1011.0 |
| 20260505115931 | 12 | 53 | 1.6 | 1.6 | 0.00 | 0.00 | 0.00 | 90 | 1011.0 |
| 20260505115429 | 12 | 53 | 1.6 | 3.2 | 0.00 | 0.00 | 0.00 | 91 | 1011.0 |
| 20260505115148 | 12 | 53 | 1.6 | 3.2 | 0.00 | 0.00 | 0.00 | 91 | 1011.1 |
| 20260505114908 | 12 | 53 | 1.6 | 3.2 | 0.00 | 0.00 | 0.00 | 91 | 1011.1 |
| 20260505113925 | 12 | 53 | 3.2 | 4.8 | 0.00 | 0.00 | 0.00 | 91 | 1011.2 |
| 20260505113426 | 12 | 53 | 3.2 | 6.4 | 0.00 | 0.00 | 0.00 | 91 | 1011.2 |
| 20260505112922 | 12 | 44 | 3.2 | 6.4 | 0.00 | 0.00 | 0.00 | 91 | 1011.1 |
| 20260505112421 | 12 | 36 | 3.2 | 6.4 | 0.00 | 0.00 | 0.00 | 91 | 1011.1 |
| 20260505111918 | 12 | 58 | 1.6 | 3.2 | 0.00 | 0.00 | 0.00 | 91 | 1011.0 |
| 20260505111418 | 12 | 301 | 3.2 | 4.8 | 0.00 | 0.00 | 0.00 | 90 | 1010.9 |
| 20260505111139 | 12 | 302 | 3.2 | 6.4 | 0.00 | 0.00 | 0.00 | 90 | 1010.7 |
| 20260505110415 | 12 | 52 | 4.8 | 6.4 | 0.00 | 0.00 | 0.00 | 89 | 1010.7 |
| 20260505101901 | 11 | 59 | 0.0 | 3.2 | 0.00 | 0.00 | 0.00 | 91 | 1010.1 |
| 20260505101355 | 11 | 59 | 0.0 | 1.6 | 0.00 | 0.00 | 0.00 | 91 | 1010.2 |
| 20260505100850 | 11 | 59 | 0.0 | 3.2 | 0.00 | 0.00 | 0.00 | 92 | 1010.2 |
| 20260505100344 | 11 | 57 | 1.6 | 3.2 | 0.00 | 0.00 | 0.00 | 92 | 1010.0 |
| 20260505100318 | 11 | 57 | 1.6 | 3.2 | 0.00 | 0.00 | 0.00 | 92 | 1010.0 |
| 20260505095331 | 11 | 57 | 1.6 | 3.2 | 0.00 | 0.00 | 0.00 | 92 | 1009.9 |
| 20260505094824 | 11 | 57 | 3.2 | 3.2 | 0.00 | 0.00 | 0.00 | 92 | 1010.0 |
| 20260505094319 | 11 | 333 | 3.2 | 4.8 | 0.00 | 0.00 | 0.00 | 92 | 1009.9 |
| 20260505094257 | 11 | 308 | 3.2 | 4.8 | 0.00 | 0.00 | 0.00 | 92 | 1009.9 |
| 20260505093307 | 11 | 293 | 4.8 | 4.8 | 0.00 | 0.00 | 0.00 | 92 | 1009.9 |
| 20260505092800 | 11 | 303 | 4.8 | 4.8 | 0.00 | 0.00 | 0.00 | 91 | 1009.9 |
| 20260505092255 | 11 | 322 | 3.2 | 4.8 | 0.00 | 0.00 | 0.00 | 91 | 1010.1 |
| 20260505091751 | 11 | 74 | 1.6 | 4.8 | 0.00 | 0.00 | 0.00 | 91 | 1010.1 |
| 20260505091243 | 11 | 76 | 1.6 | 4.8 | 0.00 | 0.00 | 0.00 | 91 | 1010.0 |
| 20260505090737 | 11 | 76 | 3.2 | 6.4 | 0.00 | 0.00 | 0.00 | 91 | 1009.9 |
| 20260505090231 | 11 | 321 | 3.2 | 6.4 | 0.00 | 0.00 | 0.00 | 91 | 1009.9 |
| 20260505085725 | 11 | 61 | 3.2 | 4.8 | 0.00 | 0.00 | 0.00 | 91 | 1010.0 |
| 20260505085219 | 11 | 61 | 3.2 | 6.4 | 0.00 | 0.00 | 0.00 | 91 | 1010.0 |
| 20260505084713 | 11 | 61 | 3.2 | 6.4 | 0.00 | 0.00 | 0.00 | 92 | 1010.0 |
| 20260505084207 | 11 | 61 | 3.2 | 4.8 | 0.00 | 0.00 | 0.00 | 92 | 1010.1 |
| 20260505083701 | 11 | 61 | 3.2 | 4.8 | 0.00 | 0.00 | 0.00 | 92 | 1010.1 |
| 20260505083155 | 11 | 78 | 3.2 | 4.8 | 0.00 | 0.00 | 0.00 | 92 | 1010.1 |
| 20260505082648 | 11 | 56 | 3.2 | 6.4 | 0.00 | 0.00 | 0.00 | 92 | 1010.2 |
| 20260505082150 | 11 | 341 | 3.2 | 6.4 | 0.00 | 0.00 | 0.00 | 92 | 1010.1 |
| 20260505081911 | 11 | 317 | 4.8 | 6.4 | 0.00 | 0.00 | 0.00 | 93 | 1010.1 |
| 20260505081149 | 11 | 309 | 3.2 | 6.4 | 0.00 | 0.00 | 0.00 | 93 | 1010.0 |
| 20260505080648 | 11 | 314 | 0.0 | 6.4 | 0.00 | 0.00 | 0.00 | 93 | 1010.1 |
| 20260505080149 | 10 | 130 | 0.0 | 1.6 | 0.00 | 0.00 | 0.00 | 92 | 1010.0 |
| 20260505075649 | 10 | 130 | 0.0 | 1.6 | 0.00 | 0.00 | 0.00 | 92 | 1009.9 |
| 20260505075416 | 10 | 130 | 0.0 | 1.6 | 0.00 | 0.00 | 0.00 | 91 | 1010.0 |
| 20260505075134 | 11 | 128 | 0.0 | 0.0 | 0.00 | 0.00 | 0.00 | 91 | 1010.0 |
| 20260505074147 | 11 | 38 | 0.0 | 0.0 | 0.00 | 0.00 | 0.00 | 91 | 1010.0 |
| 20260505073645 | 11 | 124 | 0.0 | 1.6 | 0.00 | 0.00 | 0.00 | 90 | 1010.1 |
| 20260505073409 | 11 | 124 | 0.0 | 1.6 | 0.00 | 0.00 | 0.00 | 90 | 1010.0 |
| 20260505072643 | 11 | 123 | 1.6 | 3.2 | 0.00 | 0.00 | 0.00 | 89 | 1010.0 |
| 20260505072143 | 11 | 59 | 3.2 | 4.8 | 0.00 | 0.00 | 0.00 | 90 | 1010.0 |
| 20260505071642 | 11 | 59 | 3.2 | 4.8 | 0.00 | 0.00 | 0.00 | 89 | 1010.0 |
| 20260505071139 | 11 | 59 | 3.2 | 4.8 | 0.00 | 0.00 | 0.00 | 89 | 1010.1 |
| 20260505070913 | 11 | 59 | 3.2 | 4.8 | 0.00 | 0.00 | 0.00 | 89 | 1010.0 |
| 20260505070400 | 11 | 59 | 3.2 | 4.8 | 0.00 | 0.00 | 0.00 | 89 | 1010.1 |
| 20260505065641 | 11 | 59 | 3.2 | 4.8 | 0.00 | 0.00 | 0.00 | 88 | 1010.2 |
| 20260505065402 | 11 | 59 | 3.2 | 4.8 | 0.00 | 0.00 | 0.00 | 88 | 1010.2 |
| 20260505064638 | 12 | 59 | 4.8 | 8.0 | 0.00 | 0.00 | 0.00 | 88 | 1010.1 |
| 20260505064354 | 12 | 59 | 4.8 | 8.0 | 0.00 | 0.00 | 0.00 | 87 | 1010.2 |
| 20260505063634 | 12 | 70 | 4.8 | 8.0 | 0.00 | 0.00 | 0.00 | 87 | 1010.2 |
| 20260505063132 | 12 | 42 | 6.4 | 9.7 | 0.00 | 0.00 | 0.00 | 87 | 1010.2 |
| 20260505062632 | 12 | 41 | 4.8 | 9.7 | 0.00 | 0.00 | 0.00 | 87 | 1010.3 |
| 20260505062133 | 12 | 42 | 3.2 | 8.0 | 0.00 | 0.00 | 0.00 | 87 | 1010.3 |
| 20260505061632 | 12 | 59 | 3.2 | 4.8 | 0.00 | 0.00 | 0.00 | 87 | 1010.3 |
| 20260505061132 | 12 | 60 | 1.6 | 4.8 | 0.00 | 0.00 | 0.00 | 87 | 1010.4 |
| 20260505060631 | 12 | 60 | 1.6 | 4.8 | 0.00 | 0.00 | 0.00 | 87 | 1010.4 |
| 20260505060132 | 12 | 60 | 1.6 | 4.8 | 0.00 | 0.00 | 0.00 | 87 | 1010.3 |
| 20260505055631 | 12 | 60 | 1.6 | 4.8 | 0.00 | 0.00 | 0.00 | 87 | 1010.3 |
| 20260505055134 | 12 | 60 | 1.6 | 4.8 | 0.00 | 0.00 | 0.00 | 87 | 1010.3 |
| 20260505054632 | 12 | 60 | 1.6 | 4.8 | 0.00 | 0.00 | 0.00 | 86 | 1010.4 |
| 20260505054132 | 12 | 81 | 1.6 | 4.8 | 0.00 | 0.00 | 0.00 | 86 | 1010.5 |
| 20260505053633 | 12 | 81 | 3.2 | 4.8 | 0.00 | 0.00 | 0.00 | 86 | 1010.5 |
| 20260505053131 | 12 | 80 | 4.8 | 9.7 | 0.00 | 0.00 | 0.00 | 85 | 1010.6 |
| 20260505052632 | 12 | 64 | 4.8 | 9.7 | 0.00 | 0.00 | 0.00 | 85 | 1010.6 |
| 20260505052133 | 12 | 61 | 6.4 | 11.3 | 0.00 | 0.00 | 0.00 | 85 | 1010.5 |
| 20260505051634 | 12 | 59 | 6.4 | 11.3 | 0.00 | 0.00 | 0.00 | 85 | 1010.6 |
| 20260505051132 | 12 | 57 | 4.8 | 11.3 | 0.00 | 0.00 | 0.00 | 85 | 1010.6 |
| 20260505050631 | 12 | 65 | 3.2 | 4.8 | 0.00 | 0.00 | 0.00 | 86 | 1010.6 |
| 20260505050131 | 11 | 64 | 3.2 | 4.8 | 0.00 | 0.00 | 0.00 | 86 | 1010.6 |
| 20260505041128 | 12 | 44 | 3.2 | 8.0 | 0.00 | 0.00 | 0.00 | 83 | 1010.9 |
| 20260505040854 | 12 | 65 | 1.6 | 6.4 | 0.00 | 0.00 | 0.00 | 82 | 1011.0 |
| 20260505040123 | 12 | 101 | 1.6 | 6.4 | 0.00 | 0.00 | 0.00 | 82 | 1011.0 |
| 20260505035622 | 12 | 101 | 3.2 | 6.4 | 0.00 | 0.00 | 0.00 | 81 | 1010.9 |
| 20260505035336 | 12 | 82 | 4.8 | 8.0 | 0.00 | 0.00 | 0.00 | 81 | 1010.9 |
| 20260505034615 | 12 | 63 | 6.4 | 14.5 | 0.00 | 0.00 | 0.00 | 81 | 1010.9 |
| 20260505034113 | 13 | 65 | 8.0 | 14.5 | 0.00 | 0.00 | 0.00 | 80 | 1010.9 |
| 20260505033612 | 13 | 55 | 9.7 | 14.5 | 0.00 | 0.00 | 0.00 | 80 | 1010.8 |
| 20260505033110 | 13 | 51 | 11.3 | 14.5 | 0.00 | 0.00 | 0.00 | 80 | 1010.8 |
| 20260505032606 | 13 | 66 | 8.0 | 12.9 | 0.00 | 0.00 | 0.00 | 79 | 1010.9 |
| 20260505032106 | 13 | 75 | 4.8 | 11.3 | 0.00 | 0.00 | 0.00 | 78 | 1010.8 |
| 20260505032058 | 13 | 80 | 3.2 | 9.7 | 0.00 | 0.00 | 0.00 | 78 | 1010.8 |
| 20260505031107 | 13 | 94 | 4.8 | 11.3 | 0.00 | 0.00 | 0.00 | 78 | 1010.7 |
| 20260505030606 | 13 | 93 | 6.4 | 11.3 | 0.00 | 0.00 | 0.00 | 78 | 1010.8 |
| 20260505030106 | 13 | 77 | 4.8 | 11.3 | 0.00 | 0.00 | 0.00 | 78 | 1010.8 |
| 20260505025601 | 13 | 86 | 3.2 | 16.1 | 0.00 | 0.00 | 0.00 | 78 | 1010.9 |
| 20260505025054 | 13 | 88 | 4.8 | 16.1 | 0.00 | 0.00 | 0.00 | 78 | 1010.9 |
| 20260505024548 | 13 | 89 | 6.4 | 16.1 | 0.00 | 0.00 | 0.00 | 77 | 1010.9 |
| 20260505024040 | 13 | 94 | 11.3 | 25.7 | 0.00 | 0.00 | 0.00 | 77 | 1010.9 |
| 20260505023535 | 13 | 113 | 14.5 | 25.7 | 0.00 | 0.00 | 0.00 | 76 | 1010.9 |
| 20260505023030 | 13 | 84 | 16.1 | 25.7 | 0.00 | 0.00 | 0.00 | 76 | 1010.9 |
| 20260505022523 | 13 | 65 | 17.7 | 25.7 | 0.00 | 0.00 | 0.00 | 75 | 1010.9 |
| 20260505022017 | 13 | 76 | 14.5 | 24.1 | 0.00 | 0.00 | 0.00 | 75 | 1011.0 |
| 20260505021511 | 13 | 73 | 12.9 | 25.7 | 0.00 | 0.00 | 0.00 | 76 | 1011.0 |
| 20260505021005 | 13 | 74 | 12.9 | 25.7 | 0.00 | 0.00 | 0.00 | 75 | 1011.0 |
| 20260505020459 | 13 | 49 | 11.3 | 22.5 | 0.00 | 0.00 | 0.00 | 76 | 1010.9 |
| 20260505015953 | 13 | 71 | 8.0 | 14.5 | 0.00 | 0.00 | 0.00 | 77 | 1010.8 |
| 20260505015448 | 13 | 61 | 6.4 | 12.9 | 0.00 | 0.00 | 0.00 | 77 | 1010.7 |
| 20260505014941 | 13 | 99 | 4.8 | 14.5 | 0.00 | 0.00 | 0.00 | 77 | 1010.8 |
| 20260505014655 | 13 | 81 | 6.4 | 17.7 | 0.00 | 0.00 | 0.00 | 76 | 1010.8 |
| 20260505014148 | 13 | 86 | 8.0 | 25.7 | 0.00 | 0.00 | 0.00 | 77 | 1010.8 |
| 20260505013648 | 13 | 99 | 11.3 | 30.6 | 0.00 | 0.00 | 0.00 | 76 | 1010.7 |
| 20260505012917 | 13 | 95 | 14.5 | 30.6 | 0.00 | 0.00 | 0.00 | 76 | 1010.7 |
| 20260505012411 | 13 | 96 | 12.9 | 30.6 | 0.00 | 0.00 | 0.00 | 77 | 1010.5 |
| 20260505011905 | 13 | 143 | 8.0 | 30.6 | 0.00 | 0.00 | 0.00 | 78 | 1010.6 |
| 20260505011359 | 12 | 265 | 8.0 | 25.7 | 0.00 | 0.00 | 0.00 | 79 | 1010.5 |
| 20260505010853 | 13 | 70 | 14.5 | 24.1 | 0.00 | 0.00 | 0.00 | 78 | 1010.5 |
| 20260505010346 | 13 | 71 | 20.9 | 33.8 | 0.00 | 0.00 | 0.00 | 77 | 1010.4 |
| 20260505010104 | 13 | 72 | 22.5 | 41.8 | 0.00 | 0.00 | 0.00 | 76 | 1010.4 |
| 20260505005335 | 13 | 80 | 19.3 | 41.8 | 0.00 | 0.00 | 0.00 | 76 | 1010.4 |
| 20260505005053 | 13 | 136 | 12.9 | 33.8 | 0.00 | 0.00 | 0.00 | 78 | 1010.2 |
| 20260505004328 | 12 | 43 | 8.0 | 17.7 | 0.00 | 0.00 | 0.00 | 79 | 1010.3 |
| 20260505003813 | 12 | 78 | 4.8 | 16.1 | 0.00 | 0.00 | 0.00 | 81 | 1010.2 |
| 20260505003307 | 12 | 62 | 1.6 | 9.7 | 0.00 | 0.00 | 0.00 | 82 | 1010.1 |
| 20260505002802 | 12 | 120 | 1.6 | 11.3 | 0.00 | 0.00 | 0.00 | 82 | 1010.0 |
| 20260505002303 | 12 | 125 | 3.2 | 11.3 | 0.00 | 0.00 | 0.00 | 83 | 1009.8 |
| 20260505001803 | 12 | 162 | 3.2 | 8.0 | 0.00 | 0.00 | 0.00 | 82 | 1009.7 |
| 20260505001527 | 12 | 160 | 3.2 | 8.0 | 0.00 | 0.00 | 0.00 | 83 | 1009.5 |
| 20260505000801 | 12 | 163 | 1.6 | 6.4 | 0.00 | 0.00 | 0.00 | 82 | 1009.4 |
| 20260505000300 | 12 | 101 | 1.6 | 8.0 | 0.00 | 0.00 | 0.00 | 82 | 1009.3 |
| 20260504235802 | 12 | 78 | 8.0 | 25.7 | 0.00 | 0.00 | 0.00 | 82 | 1009.2 |
| 20260504235301 | 12 | 77 | 14.5 | 25.7 | 0.00 | 0.00 | 0.00 | 82 | 1009.1 |
| 20260504234800 | 12 | 69 | 19.3 | 27.4 | 0.00 | 0.00 | 0.00 | 81 | 1009.1 |
| 20260504234300 | 12 | 57 | 20.9 | 27.4 | 0.00 | 0.00 | 0.00 | 81 | 1009.1 |
| 20260504233801 | 12 | 69 | 22.5 | 27.4 | 0.00 | 0.00 | 0.00 | 80 | 1009.1 |
| 20260504233301 | 12 | 50 | 24.1 | 29.0 | 0.00 | 0.00 | 0.00 | 80 | 1008.9 |
| 20260504232801 | 12 | 53 | 22.5 | 29.0 | 0.00 | 0.00 | 0.00 | 80 | 1008.8 |
| 20260504232301 | 12 | 55 | 24.1 | 30.6 | 0.00 | 0.00 | 0.00 | 79 | 1008.8 |
| 20260504231800 | 13 | 52 | 25.7 | 30.6 | 0.00 | 0.00 | 0.00 | 78 | 1008.7 |
| 20260504231300 | 13 | 61 | 25.7 | 30.6 | 0.00 | 0.00 | 0.00 | 77 | 1008.6 |
| 20260504230800 | 13 | 55 | 25.7 | 30.6 | 0.00 | 0.00 | 0.00 | 77 | 1008.6 |
| 20260504230259 | 13 | 53 | 25.7 | 30.6 | 0.00 | 0.00 | 0.00 | 77 | 1008.6 |
| 20260504225756 | 13 | 49 | 25.7 | 32.2 | 0.00 | 0.00 | 0.00 | 77 | 1008.5 |
| 20260504225520 | 13 | 57 | 27.4 | 33.8 | 0.00 | 0.00 | 0.00 | 77 | 1008.6 |
| 20260504224757 | 13 | 44 | 29.0 | 33.8 | 0.00 | 0.00 | 0.00 | 76 | 1008.6 |
| 20260504224257 | 13 | 49 | 30.6 | 37.0 | 0.00 | 0.00 | 0.00 | 75 | 1008.6 |
| 20260504223757 | 13 | 57 | 30.6 | 37.0 | 0.00 | 0.00 | 0.00 | 74 | 1008.5 |
| 20260504223257 | 13 | 52 | 29.0 | 33.8 | 0.00 | 0.00 | 0.00 | 75 | 1008.6 |
| 20260504222757 | 13 | 43 | 24.1 | 32.2 | 0.00 | 0.00 | 0.00 | 76 | 1008.6 |
| 20260504222256 | 13 | 59 | 22.5 | 27.4 | 0.00 | 0.00 | 0.00 | 77 | 1008.8 |
| 20260504221756 | 13 | 49 | 24.1 | 30.6 | 0.00 | 0.00 | 0.00 | 76 | 1008.8 |
| 20260504221257 | 13 | 46 | 25.7 | 30.6 | 0.00 | 0.00 | 0.00 | 76 | 1008.8 |
| 20260504220756 | 13 | 53 | 25.7 | 30.6 | 0.00 | 0.00 | 0.00 | 76 | 1008.8 |
| 20260504220255 | 13 | 55 | 27.4 | 32.2 | 0.00 | 0.00 | 0.00 | 76 | 1008.8 |
| 20260504215757 | 13 | 51 | 29.0 | 35.4 | 0.00 | 0.00 | 0.00 | 75 | 1008.9 |
| 20260504215516 | 13 | 51 | 30.6 | 35.4 | 0.00 | 0.00 | 0.00 | 74 | 1008.8 |
| 20260504214751 | 13 | 41 | 30.6 | 38.6 | 0.00 | 0.00 | 0.00 | 73 | 1008.8 |
| 20260504214252 | 13 | 65 | 30.6 | 38.6 | 0.00 | 0.00 | 0.00 | 74 | 1008.8 |
| 20260504213750 | 13 | 44 | 32.2 | 38.6 | 0.00 | 0.00 | 0.00 | 74 | 1008.8 |
| 20260504213250 | 13 | 58 | 29.0 | 38.6 | 0.00 | 0.00 | 0.00 | 74 | 1008.8 |
| 20260504212751 | 13 | 55 | 27.4 | 33.8 | 0.00 | 0.00 | 0.00 | 74 | 1008.8 |
| 20260504212517 | 13 | 38 | 25.7 | 33.8 | 0.00 | 0.00 | 0.00 | 75 | 1008.8 |
| 20260504211750 | 13 | 52 | 25.7 | 32.2 | 0.00 | 0.00 | 0.00 | 74 | 1008.9 |
| 20260504211249 | 13 | 53 | 27.4 | 32.2 | 0.00 | 0.00 | 0.00 | 74 | 1008.9 |
| 20260504210751 | 14 | 49 | 27.4 | 32.2 | 0.00 | 0.00 | 0.00 | 73 | 1008.9 |
| 20260504210246 | 14 | 57 | 29.0 | 33.8 | 0.00 | 0.00 | 0.00 | 72 | 1008.9 |
| 20260504205745 | 14 | 57 | 29.0 | 35.4 | 0.00 | 0.00 | 0.00 | 72 | 1008.8 |
| 20260504205248 | 14 | 51 | 29.0 | 37.0 | 0.00 | 0.00 | 0.00 | 71 | 1008.9 |
| 20260504204746 | 14 | 56 | 22.5 | 37.0 | 0.00 | 0.00 | 0.00 | 71 | 1008.9 |
| 20260504204246 | 13 | 52 | 14.5 | 29.0 | 0.00 | 0.00 | 0.00 | 76 | 1009.0 |
| 20260504203745 | 13 | 52 | 16.1 | 22.5 | 0.00 | 0.00 | 0.00 | 77 | 1008.9 |
| 20260504203245 | 13 | 57 | 19.3 | 27.4 | 0.00 | 0.00 | 0.00 | 76 | 1009.0 |
| 20260504202746 | 13 | 49 | 20.9 | 27.4 | 0.00 | 0.00 | 0.00 | 75 | 1009.0 |
| 20260504202247 | 13 | 59 | 22.5 | 27.4 | 0.00 | 0.00 | 0.00 | 75 | 1009.0 |
| 20260504202008 | 13 | 52 | 22.5 | 27.4 | 0.00 | 0.00 | 0.00 | 74 | 1009.0 |
| 20260504201242 | 13 | 46 | 22.5 | 27.4 | 0.00 | 0.00 | 0.00 | 75 | 1009.0 |
| 20260504200742 | 13 | 67 | 22.5 | 27.4 | 0.00 | 0.00 | 0.00 | 74 | 1009.0 |
| 20260504200243 | 13 | 62 | 25.7 | 32.2 | 0.00 | 0.00 | 0.00 | 74 | 1009.0 |
| 20260504195739 | 13 | 74 | 29.0 | 32.2 | 0.00 | 0.00 | 0.00 | 72 | 1009.1 |
| 20260504195238 | 13 | 64 | 27.4 | 32.2 | 0.00 | 0.00 | 0.00 | 72 | 1009.1 |
| 20260504194738 | 13 | 70 | 27.4 | 33.8 | 0.00 | 0.00 | 0.00 | 72 | 1009.1 |
| 20260504194237 | 13 | 63 | 25.7 | 33.8 | 0.00 | 0.00 | 0.00 | 71 | 1009.2 |
| 20260504193736 | 13 | 63 | 24.1 | 30.6 | 0.00 | 0.00 | 0.00 | 73 | 1009.1 |
| 20260504193234 | 13 | 73 | 27.4 | 30.6 | 0.00 | 0.00 | 0.00 | 72 | 1009.2 |
| 20260504192736 | 13 | 57 | 27.4 | 30.6 | 0.00 | 0.00 | 0.00 | 73 | 1009.2 |
| 20260504192235 | 13 | 63 | 27.4 | 30.6 | 0.00 | 0.00 | 0.00 | 74 | 1009.2 |
| 20260504191950 | 13 | 65 | 25.7 | 30.6 | 0.00 | 0.00 | 0.00 | 74 | 1009.3 |
| 20260504191234 | 13 | 64 | 24.1 | 29.0 | 0.00 | 0.00 | 0.00 | 74 | 1009.3 |
| 20260504190733 | 13 | 62 | 24.1 | 29.0 | 0.00 | 0.00 | 0.00 | 74 | 1009.4 |
| 20260504190543 | 13 | 62 | 22.5 | 27.4 | 0.00 | 0.00 | 0.00 | 75 | 1009.4 |
| 20260504185226 | 13 | 64 | 19.3 | 27.4 | 0.00 | 0.00 | 0.00 | 76 | 1009.4 |
| 20260504184720 | 13 | 63 | 19.3 | 24.1 | 0.00 | 0.00 | 0.00 | 75 | 1009.5 |
| 20260504184214 | 13 | 53 | 20.9 | 25.7 | 0.00 | 0.00 | 0.00 | 75 | 1009.6 |
| 20260504183708 | 13 | 61 | 22.5 | 25.7 | 0.00 | 0.00 | 0.00 | 74 | 1009.8 |
| 20260504183202 | 13 | 74 | 22.5 | 25.7 | 0.00 | 0.00 | 0.00 | 73 | 1009.8 |
| 20260504182656 | 13 | 68 | 19.3 | 24.1 | 0.00 | 0.00 | 0.00 | 74 | 1009.9 |
| 20260504182150 | 12 | 63 | 17.7 | 22.5 | 0.00 | 0.00 | 0.00 | 77 | 1010.0 |
| 20260504181645 | 12 | 71 | 17.7 | 22.5 | 0.00 | 0.00 | 0.00 | 76 | 1009.9 |
| 20260504181140 | 12 | 61 | 17.7 | 20.9 | 0.00 | 0.00 | 0.00 | 77 | 1010.0 |
| 20260504180633 | 12 | 63 | 17.7 | 24.1 | 0.00 | 0.00 | 0.00 | 76 | 1010.1 |
| 20260504180347 | 13 | 82 | 17.7 | 24.1 | 0.00 | 0.00 | 0.00 | 74 | 1010.1 |
| 20260504175621 | 13 | 75 | 17.7 | 25.7 | 0.00 | 0.00 | 0.00 | 72 | 1010.1 |
| 20260504175115 | 13 | 58 | 16.1 | 25.7 | 0.00 | 0.00 | 0.00 | 71 | 1010.2 |
| 20260504174609 | 13 | 77 | 17.7 | 25.7 | 0.00 | 0.00 | 0.00 | 69 | 1010.3 |
| 20260504174336 | 13 | 69 | 16.1 | 25.7 | 0.00 | 0.00 | 0.00 | 71 | 1010.3 |
| 20260504173556 | 13 | 81 | 14.5 | 24.1 | 0.00 | 0.00 | 0.00 | 71 | 1010.4 |
| 20260504173052 | 13 | 74 | 16.1 | 24.1 | 0.00 | 0.00 | 0.00 | 71 | 1010.4 |
| 20260504172543 | 13 | 103 | 17.7 | 25.7 | 0.00 | 0.00 | 0.00 | 71 | 1010.4 |
| 20260504172038 | 13 | 98 | 19.3 | 27.4 | 0.00 | 0.00 | 0.00 | 68 | 1010.4 |
| 20260504171532 | 13 | 88 | 19.3 | 29.0 | 0.00 | 0.00 | 0.00 | 68 | 1010.5 |
| 20260504171027 | 13 | 69 | 19.3 | 29.0 | 0.00 | 0.00 | 0.00 | 69 | 1010.5 |
| 20260504170520 | 13 | 80 | 19.3 | 29.0 | 0.00 | 0.00 | 0.00 | 68 | 1010.5 |
| 20260504170238 | 13 | 89 | 17.7 | 25.7 | 0.00 | 0.00 | 0.00 | 70 | 1010.5 |
| 20260504160421 | 15 | 51 | 17.7 | 30.6 | 0.00 | 0.00 | 0.00 | 60 | 1011.4 |
| 20260504151133 | 13 | 109 | 14.5 | 29.0 | 0.00 | 0.00 | 0.00 | 68 | 1012.0 |
| 20260504150415 | 13 | 98 | 16.1 | 29.0 | 0.00 | 0.00 | 0.00 | 67 | 1012.0 |